GW7658 Weather Reports


time (UTC)temp
F
wind
direction
speed
knots
gust
knots
rain 1hr
in
rain 24hr
in
rain mn
in
humidity
%
barometer
mb
20260906123631 71 22 0.9 1.7 0.00 0.00 0.00 88 1019.1
20260906123131 70 18 0.9 2.6 0.00 0.00 0.00 89 1019.2
20260906122630 70 45 0.9 2.6 0.00 0.00 0.00 90 1019.2
20260906122130 70 340 1.7 2.6 0.00 0.00 0.00 90 1019.2
20260906121630 69 271 0.9 0.9 0.00 0.00 0.00 91 1019.0
20260906121130 69 349 0.9 0.9 0.00 0.00 0.00 91 1018.8
20260906120632 68 26 0.9 0.9 0.00 0.00 0.00 93 1018.8
20260906120130 68 26 0.9 0.9 0.00 0.00 0.00 94 1018.8
20260906115630 68 322 0.9 1.7 0.00 0.00 0.00 95 1018.7
20260906115130 68 340 0.9 0.9 0.00 0.00 0.00 95 1018.5
20260906114630 68 24 0.9 0.9 0.00 0.00 0.00 95 1018.5
20260906114131 68 359 1.7 2.6 0.00 0.00 0.00 95 1018.4
20260906113630 68 338 0.9 1.7 0.00 0.00 0.00 95 1018.3
20260906113130 68 347 0.9 0.9 0.00 0.00 0.00 95 1018.2
20260906112631 68 54 0.9 0.9 0.00 0.00 0.00 95 1018.1
20260906112130 68 350 1.7 2.6 0.00 0.00 0.00 94 1018.0
20260906111724 68 266 0.9 0.9 0.00 0.00 0.00 94 1018.0
20260906111130 68 2 1.7 2.6 0.00 0.00 0.00 94 1017.9
20260906110630 68 10 1.7 2.6 0.00 0.00 0.00 94 1017.9
20260906110130 68 350 0.9 1.7 0.00 0.00 0.00 94 1017.9
20260906105631 68 341 1.7 2.6 0.00 0.00 0.00 94 1017.9
20260906105130 68 330 1.7 1.7 0.00 0.00 0.00 94 1017.8
20260906104630 68 0 0.9 1.7 0.00 0.00 0.00 94 1017.7
20260906104130 68 17 0.9 1.7 0.00 0.00 0.00 94 1017.7
20260906103630 68 16 0.9 1.7 0.00 0.00 0.00 94 1017.7
20260906103130 68 359 0.9 1.7 0.00 0.00 0.00 94 1017.5
20260906102631 68 334 0.9 1.7 0.00 0.00 0.00 94 1017.5
20260906102130 69 311 0.9 1.7 0.00 0.00 0.00 94 1017.5
20260906101630 69 16 0.9 1.7 0.00 0.00 0.00 93 1017.5
20260906101150 69 344 0.9 0.9 0.00 0.00 0.00 93 1017.6
20260906100630 69 21 1.7 2.6 0.00 0.00 0.00 93 1017.5
20260906100130 69 13 1.7 1.7 0.00 0.00 0.00 93 1017.6
20260906095630 69 333 0.9 1.7 0.00 0.00 0.00 93 1017.4
20260906095132 69 354 0.9 1.7 0.00 0.00 0.00 93 1017.4
20260906094630 69 347 1.7 1.7 0.00 0.00 0.00 93 1017.3
20260906094131 69 33 0.9 0.9 0.00 0.00 0.00 93 1017.2
20260906093630 69 341 0.9 1.7 0.00 0.00 0.00 92 1017.3
20260906093151 69 23 1.7 2.6 0.00 0.00 0.00 92 1017.3
20260906092630 69 10 1.7 1.7 0.00 0.00 0.00 92 1017.3
20260906092130 70 10 1.7 2.6 0.00 0.00 0.00 92 1017.4
20260906091650 70 339 0.9 0.9 0.00 0.00 0.00 91 1017.3
20260906091150 70 25 3.5 4.3 0.00 0.00 0.00 91 1017.2
20260906090630 70 11 1.7 2.6 0.00 0.00 0.00 91 1017.2
20260906090131 70 314 1.7 1.7 0.00 0.00 0.00 91 1017.2
20260906085630 70 11 0.9 0.9 0.00 0.00 0.00 91 1017.2
20260906085130 70 16 0.9 1.7 0.00 0.00 0.00 91 1017.2
20260906084631 70 5 0.9 2.6 0.00 0.00 0.00 91 1017.2
20260906084130 70 2 0.9 1.7 0.00 0.00 0.00 91 1017.2
20260906083630 70 355 0.9 1.7 0.00 0.00 0.00 91 1017.2
20260906083130 70 13 0.9 1.7 0.00 0.00 0.00 91 1017.1
20260906082630 70 20 0.9 0.9 0.00 0.00 0.00 91 1017.2
20260906082130 70 39 1.7 2.6 0.00 0.00 0.00 91 1017.2
20260906081630 70 2 1.7 1.7 0.00 0.00 0.00 91 1017.2
20260906081130 70 322 0.9 1.7 0.00 0.00 0.00 90 1017.2
20260906080630 70 66 0.9 1.7 0.00 0.00 0.00 90 1017.2
20260906080152 70 357 0.9 1.7 0.00 0.00 0.00 90 1017.3
20260906075630 70 353 0.9 0.9 0.00 0.00 0.00 90 1017.3
20260906075130 70 30 1.7 1.7 0.00 0.00 0.00 90 1017.4
20260906074630 71 54 1.7 1.7 0.00 0.00 0.00 89 1017.4
20260906074130 71 37 2.6 3.5 0.00 0.00 0.00 89 1017.4
20260906073630 71 344 0.9 0.9 0.00 0.00 0.00 89 1017.4
20260906073130 71 22 1.7 2.6 0.00 0.00 0.00 89 1017.4
20260906072630 71 60 0.9 1.7 0.00 0.00 0.00 89 1017.4
20260906072131 71 32 2.6 2.6 0.00 0.00 0.00 88 1017.5
20260906071630 71 33 1.7 1.7 0.00 0.00 0.00 88 1017.5
20260906071130 71 54 0.9 0.9 0.00 0.00 0.00 88 1017.5
20260906070630 71 42 1.7 1.7 0.00 0.00 0.00 87 1017.5
20260906070131 72 337 0.9 1.7 0.00 0.00 0.00 87 1017.5
20260906065630 72 330 0.9 1.7 0.00 0.00 0.00 87 1017.6
20260906065130 72 7 0.9 0.9 0.00 0.00 0.00 86 1017.6
20260906064630 72 14 2.6 2.6 0.00 0.00 0.00 86 1017.5
20260906064130 72 62 0.9 0.9 0.00 0.00 0.00 86 1017.6
20260906063652 72 66 0.9 0.9 0.00 0.00 0.00 86 1017.5
20260906063150 72 17 2.6 3.5 0.00 0.00 0.00 85 1017.5
20260906062650 72 340 0.9 1.7 0.00 0.00 0.00 85 1017.5
20260906062130 72 20 2.6 3.5 0.00 0.00 0.00 85 1017.6
20260906061630 72 356 1.7 1.7 0.00 0.00 0.00 85 1017.6
20260906061130 72 2 0.9 1.7 0.00 0.00 0.00 85 1017.7
20260906060630 72 339 0.9 0.9 0.00 0.00 0.00 85 1017.6
20260906060130 72 47 1.7 3.5 0.00 0.00 0.00 85 1017.6
20260906055630 72 257 0.9 1.7 0.00 0.00 0.00 85 1017.5
20260906055130 72 11 0.9 1.7 0.00 0.00 0.00 85 1017.4
20260906054631 72 286 0.9 1.7 0.00 0.00 0.00 85 1017.4
20260906054130 72 3 1.7 4.3 0.00 0.00 0.00 85 1017.3
20260906053630 72 43 1.7 2.6 0.00 0.00 0.00 85 1017.3
20260906053130 73 38 0.9 2.6 0.00 0.00 0.00 85 1017.3
20260906052630 73 17 0.9 1.7 0.00 0.00 0.00 84 1017.3
20260906052130 73 299 0.9 1.7 0.00 0.00 0.00 84 1017.3
20260906051630 73 45 1.7 2.6 0.00 0.00 0.00 84 1017.2
20260906051130 73 357 1.7 2.6 0.00 0.00 0.00 84 1017.2
20260906050630 73 96 0.9 1.7 0.00 0.00 0.00 84 1017.2
20260906050130 73 124 1.7 3.5 0.00 0.00 0.00 84 1017.1
20260906045630 73 73 2.6 4.3 0.00 0.00 0.00 83 1017.1
20260906045130 73 5 0.9 2.6 0.00 0.00 0.00 83 1017.1
20260906044631 73 32 0.9 2.6 0.00 0.00 0.00 82 1017.1
20260906044152 73 29 1.7 4.3 0.00 0.00 0.00 82 1017.1
20260906043630 73 328 0.9 1.7 0.00 0.00 0.00 82 1016.9
20260906043130 73 343 0.9 2.6 0.00 0.00 0.00 82 1016.8
20260906042630 73 317 0.9 0.9 0.00 0.00 0.00 81 1016.8
20260906042130 73 40 1.7 3.5 0.00 0.00 0.00 81 1016.7
20260906041631 74 33 2.6 4.3 0.00 0.00 0.00 81 1016.6
20260906041210 74 40 0.9 2.6 0.00 0.00 0.00 81 1016.6
20260906040630 74 352 1.7 2.6 0.00 0.00 0.00 81 1016.6
20260906040130 74 356 0.9 1.7 0.00 0.00 0.00 81 1016.5
20260906035630 74 59 2.6 6.1 0.00 0.00 0.00 80 1016.4
20260906035130 74 27 1.7 3.5 0.00 0.00 0.00 80 1016.3
20260906034630 74 81 2.6 6.1 0.00 0.00 0.00 80 1016.3
20260906034130 73 98 3.5 7.0 0.00 0.00 0.00 80 1016.3
20260906033630 73 103 5.2 7.8 0.00 0.00 0.00 80 1016.3
20260906033131 73 98 4.3 7.8 0.00 0.00 0.00 81 1016.4
20260906032711 73 90 2.6 4.3 0.00 0.00 0.00 81 1016.4
20260906032130 73 85 1.7 5.2 0.00 0.00 0.00 81 1016.3
20260906031630 73 88 2.6 4.3 0.00 0.00 0.00 81 1016.3
20260906031130 73 75 2.6 4.3 0.00 0.00 0.00 81 1016.3
20260906030630 73 99 3.5 7.0 0.00 0.00 0.00 81 1016.3
20260906030131 73 117 3.5 5.2 0.00 0.00 0.00 81 1016.3
20260906025630 73 52 2.6 6.1 0.00 0.00 0.00 81 1016.3
20260906025150 73 11 2.6 4.3 0.00 0.00 0.00 81 1016.3
20260906024650 73 33 2.6 4.3 0.00 0.00 0.00 81 1016.4
20260906024130 73 74 3.5 7.0 0.00 0.00 0.00 81 1016.4
20260906023630 73 18 1.7 2.6 0.00 0.00 0.00 81 1016.3
20260906023130 73 21 0.9 2.6 0.00 0.00 0.00 81 1016.3
20260906022631 73 40 3.5 7.0 0.00 0.00 0.00 81 1016.3
20260906022130 73 59 4.3 7.0 0.00 0.00 0.00 82 1016.3
20260906021630 73 43 2.6 6.1 0.00 0.00 0.00 82 1016.4
20260906021130 73 23 1.7 4.3 0.00 0.00 0.00 82 1016.3
20260906020630 73 59 5.2 9.6 0.00 0.00 0.00 82 1016.3
20260906020130 73 35 0.9 2.6 0.00 0.00 0.00 81 1016.3
20260906015630 73 28 1.7 2.6 0.00 0.00 0.00 81 1016.2
20260906015151 73 66 3.5 7.0 0.00 0.00 0.00 81 1016.2
20260906014630 73 0 2.6 7.8 0.00 0.00 0.00 81 1016.3
20260906014130 73 16 2.6 5.2 0.00 0.00 0.00 81 1016.3
20260906013630 73 325 2.6 4.3 0.00 0.00 0.00 81 1016.4
20260906013130 73 3 2.6 4.3 0.00 0.00 0.00 80 1016.2
20260906012630 73 35 1.7 3.5 0.00 0.00 0.00 81 1016.2
20260906012130 73 353 3.5 4.3 0.00 0.00 0.00 81 1016.2
20260906011630 73 24 2.6 3.5 0.00 0.00 0.00 81 1016.2
20260906011130 73 34 3.5 4.3 0.00 0.00 0.00 82 1016.2
20260906010630 73 1 1.7 3.5 0.00 0.00 0.00 82 1016.3
20260906010130 73 339 3.5 6.1 0.00 0.00 0.00 82 1016.3
20260906005650 74 52 2.6 6.1 0.00 0.00 0.00 82 1016.3
20260906005130 74 41 1.7 3.5 0.00 0.00 0.00 81 1016.3
20260906004630 74 104 2.6 6.1 0.00 0.00 0.00 81 1016.2
20260906004150 75 62 4.3 7.8 0.00 0.00 0.00 80 1016.1
20260906003630 75 348 2.6 4.3 0.00 0.00 0.00 80 1016.1
20260906003150 76 3 2.6 4.3 0.00 0.00 0.00 79 1016.1
20260906002630 76 353 0.9 1.7 0.00 0.00 0.00 79 1015.9
20260906002130 76 41 4.3 7.0 0.00 0.00 0.00 78 1015.8
20260906001630 77 7 1.7 3.5 0.00 0.00 0.00 78 1015.8
20260906001130 77 44 3.5 7.8 0.00 0.00 0.00 78 1015.6
20260906000630 77 19 3.5 6.1 0.00 0.00 0.00 77 1015.5
20260906000150 78 45 1.7 3.5 0.00 0.00 0.00 77 1015.4
20260905235630 78 71 0.9 3.5 0.00 0.00 0.00 76 1015.2
20260905235130 78 38 2.6 5.2 0.00 0.00 0.00 76 1015.0
20260905234632 79 81 2.6 6.1 0.00 0.00 0.00 76 1015.0
20260905234130 79 104 6.1 9.6 0.00 0.00 0.00 74 1015.0
20260905233630 80 63 2.6 4.3 0.00 0.00 0.00 73 1015.0
20260905233130 80 53 1.7 3.5 0.00 0.00 0.00 73 1015.0
20260905232630 80 27 4.3 7.0 0.00 0.00 0.00 72 1015.1
20260905232130 81 33 1.7 3.5 0.00 0.00 0.00 72 1015.1
20260905231650 81 43 0.9 1.7 0.00 0.00 0.00 71 1015.1
20260905231130 82 25 1.7 2.6 0.00 0.00 0.00 70 1015.0
20260905230630 82 12 1.7 6.1 0.00 0.00 0.00 69 1014.9
20260905230130 82 29 2.6 3.5 0.00 0.00 0.00 68 1014.8
20260905225630 82 20 2.6 3.5 0.00 0.00 0.00 68 1014.8
20260905225130 83 350 2.6 4.3 0.00 0.00 0.00 66 1014.7
20260905224630 83 343 1.7 2.6 0.00 0.00 0.00 67 1014.7
20260905224130 83 74 2.6 4.3 0.00 0.00 0.00 67 1014.6
20260905223630 82 62 1.7 3.5 0.00 0.00 0.00 66 1014.5
20260905223150 82 3 0.9 1.7 0.00 0.00 0.00 67 1014.6
20260905222630 83 48 2.6 5.2 0.00 0.00 0.00 67 1014.6
20260905222130 83 27 1.7 3.5 0.00 0.00 0.00 66 1014.6
20260905221630 83 42 4.3 7.0 0.00 0.00 0.00 66 1014.6
20260905221150 83 18 2.6 4.3 0.00 0.00 0.00 66 1014.6
20260905220650 83 53 2.6 7.0 0.00 0.00 0.00 68 1014.5
20260905220130 83 125 3.5 4.3 0.00 0.00 0.00 68 1014.5
20260905215630 83 66 2.6 5.2 0.00 0.00 0.00 69 1014.5
20260905215130 83 13 1.7 3.5 0.00 0.00 0.00 68 1014.5
20260905214630 83 52 1.7 2.6 0.00 0.00 0.00 68 1014.6
20260905214130 83 343 1.7 4.3 0.00 0.00 0.00 68 1014.6
20260905213630 83 5 2.6 4.3 0.00 0.00 0.00 68 1014.8
20260905213130 82 328 1.7 3.5 0.00 0.00 0.00 70 1014.7
20260905212630 82 359 2.6 4.3 0.00 0.00 0.00 71 1014.6
20260905212130 82 106 1.7 2.6 0.00 0.00 0.00 72 1014.7
20260905211630 82 53 2.6 4.3 0.00 0.00 0.00 72 1014.7
20260905211130 82 9 2.6 4.3 0.00 0.00 0.00 70 1014.7
20260905210630 82 26 6.1 7.8 0.00 0.00 0.00 70 1014.6
20260905210130 82 27 2.6 3.5 0.00 0.00 0.00 70 1014.7
20260905205630 82 72 1.7 3.5 0.00 0.00 0.00 71 1014.8
20260905205130 82 23 1.7 4.3 0.00 0.00 0.00 71 1014.9
20260905204631 82 57 3.5 7.0 0.00 0.00 0.00 72 1014.9
20260905204150 82 40 1.7 3.5 0.00 0.00 0.00 72 1015.0
20260905203650 82 35 3.5 5.2 0.00 0.00 0.00 73 1015.0
20260905203150 82 27 2.6 5.2 0.00 0.00 0.00 71 1015.1
20260905202630 83 45 5.2 7.8 0.00 0.00 0.00 70 1015.0
20260905202130 83 6 2.6 7.0 0.00 0.00 0.00 71 1015.0
20260905201630 83 40 2.6 5.2 0.00 0.00 0.00 70 1015.0
20260905201130 83 4 2.6 5.2 0.00 0.00 0.00 70 1015.0
20260905200631 83 6 2.6 5.2 0.00 0.00 0.00 70 1015.0
20260905200130 83 322 3.5 5.2 0.00 0.00 0.00 71 1014.9
20260905195630 83 40 3.5 6.1 0.00 0.00 0.00 71 1015.0
20260905195130 83 6 2.6 4.3 0.00 0.00 0.00 71 1014.9
20260905194630 83 28 2.6 5.2 0.00 0.00 0.00 71 1014.9
20260905194130 84 68 2.6 5.2 0.00 0.00 0.00 70 1014.8
20260905193630 84 36 1.7 2.6 0.00 0.00 0.00 68 1014.8
20260905193130 85 6 1.7 2.6 0.00 0.00 0.00 67 1014.8
20260905192650 85 13 3.5 5.2 0.00 0.00 0.00 66 1014.7
20260905192130 85 354 1.7 4.3 0.00 0.00 0.00 67 1014.8
20260905191630 85 26 3.5 7.0 0.00 0.00 0.00 67 1014.8
20260905191131 85 24 3.5 5.2 0.00 0.00 0.00 68 1014.8
20260905190630 85 24 1.7 3.5 0.00 0.00 0.00 68 1014.8
20260905190130 85 31 3.5 7.8 0.00 0.00 0.00 68 1014.8
20260905185630 85 17 2.6 3.5 0.00 0.00 0.00 69 1014.8
20260905185150 86 40 3.5 5.2 0.00 0.00 0.00 68 1014.8
20260905184630 86 51 1.7 5.2 0.00 0.00 0.00 68 1014.8
20260905184151 86 56 4.3 7.8 0.00 0.00 0.00 67 1014.9
20260905183630 85 47 3.5 5.2 0.00 0.00 0.00 68 1014.9
20260905183130 85 47 4.3 7.0 0.00 0.00 0.00 69 1015.0
20260905182630 85 348 1.7 3.5 0.00 0.00 0.00 69 1014.9
20260905182151 86 318 1.7 3.5 0.00 0.00 0.00 68 1014.9
20260905181710 86 358 1.7 3.5 0.00 0.00 0.00 67 1014.9
20260905181130 86 310 1.7 2.6 0.00 0.00 0.00 66 1014.9
20260905180630 86 313 1.7 3.5 0.00 0.00 0.00 67 1014.9
20260905180130 86 340 2.6 4.3 0.00 0.00 0.00 67 1014.9
20260905175630 85 343 1.7 3.5 0.00 0.00 0.00 68 1014.9
20260905175130 86 38 2.6 6.1 0.00 0.00 0.00 68 1014.8
20260905174630 86 59 1.7 2.6 0.00 0.00 0.00 68 1014.8
20260905174150 85 80 2.6 3.5 0.00 0.00 0.00 69 1014.8
20260905173630 85 20 1.7 2.6 0.00 0.00 0.00 70 1014.9
20260905173130 86 104 3.5 4.3 0.00 0.00 0.00 69 1014.8
20260905172630 86 27 1.7 3.5 0.00 0.00 0.00 66 1014.9
20260905172132 86 324 3.5 5.2 0.00 0.00 0.00 68 1014.8
20260905171630 85 33 2.6 5.2 0.00 0.00 0.00 70 1014.9
20260905171130 85 106 1.7 2.6 0.00 0.00 0.00 70 1014.9
20260905170630 85 47 2.6 4.3 0.00 0.00 0.00 70 1015.0
20260905170130 85 343 2.6 4.3 0.00 0.00 0.00 70 1015.0
20260905165630 85 59 1.7 5.2 0.00 0.00 0.00 71 1015.1
20260905165213 85 48 2.6 3.5 0.00 0.00 0.00 70 1015.0
20260905164630 85 347 2.6 4.3 0.00 0.00 0.00 71 1015.1
20260905164130 85 345 2.6 4.3 0.00 0.00 0.00 70 1015.2
20260905163131 85 89 1.7 2.6 0.00 0.00 0.00 71 1015.2
20260905162630 85 48 3.5 5.2 0.00 0.00 0.00 71 1015.2
20260905162130 84 20 1.7 3.5 0.00 0.00 0.00 72 1015.1
20260905161630 84 83 2.6 5.2 0.00 0.00 0.00 73 1015.1
20260905161130 84 63 2.6 3.5 0.00 0.00 0.00 71 1015.1
20260905160630 84 89 2.6 3.5 0.00 0.00 0.00 73 1015.2
20260905160132 83 23 1.7 2.6 0.00 0.00 0.00 73 1015.2
20260905155630 83 338 1.7 2.6 0.00 0.00 0.00 74 1015.2
20260905155130 83 20 1.7 2.6 0.00 0.00 0.00 74 1015.1
20260905154651 82 309 2.6 4.3 0.00 0.00 0.00 75 1015.1
20260905154130 82 335 1.7 5.2 0.00 0.00 0.00 75 1015.1
20260905153630 82 46 2.6 6.1 0.00 0.00 0.00 76 1015.1
20260905153130 82 325 1.7 2.6 0.00 0.00 0.00 77 1015.0
20260905152630 81 334 2.6 4.3 0.00 0.00 0.00 77 1015.0
20260905152130 81 0 2.6 4.3 0.00 0.00 0.00 78 1014.9
20260905151630 80 70 1.7 3.5 0.00 0.00 0.00 78 1014.9
20260905151130 80 34 2.6 4.3 0.00 0.00 0.00 79 1015.0
20260905150630 79 348 2.6 5.2 0.00 0.00 0.00 81 1014.9
20260905150152 78 27 1.7 2.6 0.00 0.00 0.00 83 1014.9
20260905145630 78 320 2.6 4.3 0.00 0.00 0.00 84 1014.8
20260905145130 78 334 1.7 3.5 0.00 0.00 0.00 84 1014.8
20260905144650 78 339 1.7 2.6 0.00 0.00 0.00 85 1014.7
20260905144130 78 44 2.6 3.5 0.00 0.00 0.00 84 1014.6
20260905143630 78 309 1.7 3.5 0.00 0.00 0.00 85 1014.7
20260905143130 77 331 2.6 5.2 0.00 0.00 0.00 85 1014.7
20260905142630 77 36 1.7 2.6 0.00 0.00 0.00 86 1014.7
20260905142130 78 268 0.9 1.7 0.00 0.00 0.00 86 1014.7
20260905141630 78 349 2.6 5.2 0.00 0.00 0.00 86 1014.7
20260905141130 79 29 1.7 2.6 0.00 0.00 0.00 85 1014.5
20260905140630 79 31 2.6 5.2 0.00 0.00 0.00 84 1014.5
20260905140130 80 7 2.6 5.2 0.00 0.00 0.00 84 1014.4
20260905135650 80 26 2.6 4.3 0.00 0.00 0.00 83 1014.3
20260905135130 81 0 1.7 2.6 0.00 0.00 0.00 81 1014.2
20260905134630 80 325 1.7 1.7 0.00 0.00 0.00 82 1014.2
20260905134130 80 48 1.7 2.6 0.00 0.00 0.00 83 1014.2
20260905133630 80 32 3.5 4.3 0.00 0.00 0.00 82 1014.2
20260905133150 80 48 1.7 2.6 0.00 0.00 0.00 82 1014.2
20260905132651 80 43 2.6 4.3 0.00 0.00 0.00 82 1014.3
20260905132130 80 8 0.9 2.6 0.00 0.00 0.00 83 1014.5
20260905131650 80 358 0.9 1.7 0.00 0.00 0.00 83 1014.7
20260905131130 79 16 1.7 2.6 0.00 0.00 0.00 84 1014.6
20260905130651 79 360 1.7 3.5 0.00 0.00 0.00 85 1014.3
20260905130130 79 317 1.7 4.3 0.00 0.00 0.00 85 1014.1
20260905125650 79 341 1.7 4.3 0.00 0.00 0.00 85 1014.0
20260905125130 79 336 0.9 1.7 0.00 0.00 0.00 86 1014.0
20260905124631 79 344 0.9 3.5 0.00 0.00 0.00 86 1013.9